RYR753Y LERS-EGBB

Flight info

Callsign RYR753Y
Flight time 1h 53m
Altitude 38000
Route NATPI DCT EVNAM DCT TUPAR UN861 DIKRO UM184 HEMEL
Aircraft B38M/M-SADE3FGILRWY/SB1

Departure

Time 2026-04-27 12:18
Airport Reus Airport (LERS)

Arrival

Time 2026-04-27 14:11
Airport Birmingham Airport (EGBB)
Time Latitude Longitude Altitude Speed Heading
2026-04-27 11:36 41.14646 1.15502 244 ft 0 kts 339°
2026-04-27 12:09 41.14645 1.15502 245 ft 2 kts 340°
2026-04-27 12:09 41.14622 1.15517 245 ft 4 kts 324°
2026-04-27 12:09 41.14605 1.15535 245 ft 4 kts 328°
2026-04-27 12:10 41.14583 1.15540 245 ft 4 kts 25°
2026-04-27 12:10 41.14566 1.15518 245 ft 3 kts 66°
2026-04-27 12:10 41.14565 1.15513 245 ft 0 kts 69°
2026-04-27 12:12 41.14569 1.15527 245 ft 3 kts 69°
2026-04-27 12:13 41.14580 1.15567 245 ft 7 kts 69°
2026-04-27 12:13 41.14608 1.15660 245 ft 15 kts 69°
2026-04-27 12:13 41.14655 1.15821 245 ft 21 kts 68°
2026-04-27 12:13 41.14710 1.16009 245 ft 23 kts 69°
2026-04-27 12:14 41.14770 1.16215 245 ft 25 kts 69°
2026-04-27 12:14 41.14835 1.16439 245 ft 27 kts 68°
2026-04-27 12:14 41.14906 1.16679 245 ft 29 kts 69°
2026-04-27 12:14 41.14979 1.16932 245 ft 29 kts 69°
2026-04-27 12:15 41.15051 1.17175 245 ft 29 kts 69°
2026-04-27 12:15 41.15111 1.17379 245 ft 20 kts 69°
2026-04-27 12:15 41.15133 1.17546 245 ft 12 kts 133°
2026-04-27 12:15 41.15058 1.17592 245 ft 8 kts 159°
2026-04-27 12:16 41.15023 1.17629 245 ft 5 kts 98°
2026-04-27 12:16 41.15016 1.17641 245 ft 1 kts 151°
2026-04-27 12:16 41.15010 1.17640 245 ft 1 kts 198°
2026-04-27 12:16 41.15007 1.17632 245 ft 0 kts 246°
2026-04-27 12:17 41.14984 1.17556 245 ft 38 kts 249°
2026-04-27 12:17 41.14797 1.16913 245 ft 109 kts 249°
2026-04-27 12:17 41.14450 1.15729 249 ft 164 kts 244°
2026-04-27 12:17 41.14038 1.14274 818 ft 172 kts 247°
2026-04-27 12:18 41.13459 1.12879 1532 ft 173 kts 233°
2026-04-27 12:18 41.12750 1.11508 2162 ft 185 kts 233°
2026-04-27 12:18 41.12008 1.10016 2694 ft 203 kts 236°
2026-04-27 12:18 41.11224 1.08372 3299 ft 216 kts 236°
2026-04-27 12:19 41.10422 1.06646 3978 ft 227 kts 236°
2026-04-27 12:19 41.09564 1.04781 4543 ft 247 kts 237°
2026-04-27 12:19 41.08641 1.02755 5029 ft 267 kts 237°
2026-04-27 12:19 41.07663 1.00589 5673 ft 276 kts 237°
2026-04-27 12:20 41.06678 0.98404 6582 ft 278 kts 238°
2026-04-27 12:20 41.05681 0.96186 7353 ft 281 kts 238°
2026-04-27 12:20 41.04720 0.93919 8169 ft 285 kts 247°
2026-04-27 12:20 41.04490 0.91328 8999 ft 287 kts 279°
2026-04-27 12:21 41.05299 0.88912 9756 ft 294 kts 309°
2026-04-27 12:21 41.06869 0.87180 10477 ft 299 kts 331°
2026-04-27 12:21 41.08892 0.86336 10901 ft 315 kts 356°
2026-04-27 12:21 41.11068 0.86807 11477 ft 325 kts 21°
2026-04-27 12:22 41.13216 0.87846 12177 ft 330 kts 18°
2026-04-27 12:22 41.15412 0.88811 12978 ft 335 kts 18°
2026-04-27 12:22 41.17641 0.89776 13800 ft 339 kts 17°
2026-04-27 12:22 41.19913 0.90750 14484 ft 346 kts 17°
2026-04-27 12:23 41.22206 0.91722 15343 ft 347 kts 17°
2026-04-27 12:23 41.24513 0.92712 16120 ft 351 kts 17°
2026-04-27 12:23 41.26850 0.93706 16867 ft 354 kts 17°
2026-04-27 12:23 41.29202 0.94714 17670 ft 357 kts 17°
2026-04-27 12:24 41.31581 0.95730 18391 ft 361 kts 17°
2026-04-27 12:24 41.33986 0.96757 19011 ft 364 kts 17°
2026-04-27 12:24 41.36400 0.97799 19642 ft 367 kts 17°
2026-04-27 12:24 41.38817 0.98833 20206 ft 371 kts 17°
2026-04-27 12:25 41.41282 0.99893 20841 ft 373 kts 17°
2026-04-27 12:25 41.43766 1.00962 21437 ft 377 kts 17°
2026-04-27 12:25 41.46269 1.02040 22050 ft 380 kts 17°
2026-04-27 12:25 41.48790 1.03126 22652 ft 383 kts 16°
2026-04-27 12:26 41.51333 1.04226 23255 ft 386 kts 17°
2026-04-27 12:26 41.53898 1.05334 23812 ft 389 kts 16°
2026-04-27 12:26 41.56485 1.06453 24306 ft 392 kts 17°
2026-04-27 12:26 41.59091 1.07584 24777 ft 396 kts 17°
2026-04-27 12:27 41.61722 1.08724 25249 ft 399 kts 17°
2026-04-27 12:27 41.64370 1.09875 25749 ft 401 kts 17°
2026-04-27 12:27 41.67037 1.11034 26204 ft 404 kts 17°
2026-04-27 12:27 41.69720 1.12202 26686 ft 407 kts 17°
2026-04-27 12:28 41.72424 1.13380 27140 ft 410 kts 17°
2026-04-27 12:28 41.75147 1.14568 27581 ft 413 kts 17°
2026-04-27 12:28 41.77889 1.15769 27991 ft 417 kts 18°
2026-04-27 12:28 41.80670 1.16982 28302 ft 423 kts 18°
2026-04-27 12:29 41.83472 1.18207 28779 ft 424 kts 18°
2026-04-27 12:29 41.86287 1.19442 29191 ft 427 kts 18°
2026-04-27 12:29 41.89122 1.20683 29603 ft 430 kts 18°
2026-04-27 12:29 41.91969 1.21934 30032 ft 432 kts 18°
2026-04-27 12:30 41.94839 1.23194 30375 ft 435 kts 18°
2026-04-27 12:30 41.97724 1.24464 30744 ft 437 kts 18°
2026-04-27 12:30 42.00622 1.25740 31064 ft 440 kts 18°
2026-04-27 12:30 42.03539 1.27027 31391 ft 442 kts 17°
2026-04-27 12:31 42.06468 1.28321 31714 ft 445 kts 18°
2026-04-27 12:31 42.09415 1.29623 32108 ft 446 kts 17°
2026-04-27 12:31 42.12369 1.30930 32417 ft 448 kts 18°
2026-04-27 12:31 42.15336 1.32245 32805 ft 449 kts 18°
2026-04-27 12:32 42.18313 1.33564 33119 ft 452 kts 17°
2026-04-27 12:32 42.21388 1.34393 33472 ft 452 kts
2026-04-27 12:32 42.24479 1.34128 33721 ft 453 kts 350°
2026-04-27 12:32 42.27613 1.33511 34008 ft 455 kts 351°
2026-04-27 12:33 42.30738 1.32870 34427 ft 454 kts 350°
2026-04-27 12:33 42.33853 1.32204 34788 ft 453 kts 349°
2026-04-27 12:33 42.36961 1.31521 35186 ft 451 kts 349°
2026-04-27 12:33 42.40054 1.30832 35577 ft 450 kts 349°
2026-04-27 12:34 42.43137 1.30145 35964 ft 448 kts 349°
2026-04-27 12:34 42.46208 1.29458 36331 ft 447 kts 349°
2026-04-27 12:34 42.49269 1.28773 36685 ft 445 kts 349°
2026-04-27 12:34 42.52324 1.28089 37030 ft 445 kts 349°
2026-04-27 12:35 42.55374 1.27406 37350 ft 444 kts 349°
2026-04-27 12:35 42.58421 1.26722 37656 ft 443 kts 349°
2026-04-27 12:35 42.61459 1.26040 37974 ft 442 kts 348°
2026-04-27 12:35 42.64496 1.25357 38178 ft 443 kts 348°
2026-04-27 12:36 42.67537 1.24674 38145 ft 442 kts 348°
2026-04-27 12:36 42.73597 1.23489 38142 ft 441 kts 353°
2026-04-27 12:37 42.79702 1.22705 38143 ft 440 kts 352°
2026-04-27 12:37 42.85801 1.21865 38146 ft 440 kts 352°
2026-04-27 12:38 42.91899 1.21016 38138 ft 441 kts 352°
2026-04-27 12:38 42.97963 1.20171 38139 ft 441 kts 352°
2026-04-27 12:39 43.04067 1.19318 38132 ft 441 kts 352°
2026-04-27 12:39 43.10172 1.18464 38124 ft 441 kts 352°
2026-04-27 12:40 43.16276 1.17607 38130 ft 441 kts 352°
2026-04-27 12:40 43.22379 1.16749 38128 ft 441 kts 352°
2026-04-27 12:41 43.28480 1.15890 38116 ft 441 kts 352°
2026-04-27 12:41 43.34585 1.15028 38120 ft 441 kts 352°
2026-04-27 12:42 43.40687 1.14165 38122 ft 441 kts 352°
2026-04-27 12:42 43.46798 1.13299 38124 ft 442 kts 351°
2026-04-27 12:43 43.52914 1.12430 38120 ft 442 kts 351°
2026-04-27 12:43 43.59031 1.11531 38115 ft 441 kts 348°
2026-04-27 12:43 43.61938 1.10328 38120 ft 433 kts 333°
2026-04-27 12:44 43.64716 1.08692 38114 ft 437 kts 335°
2026-04-27 12:44 43.70279 1.05464 38131 ft 437 kts 334°
2026-04-27 12:45 43.75859 1.02138 38120 ft 436 kts 334°
2026-04-27 12:45 43.81428 0.98799 38119 ft 436 kts 334°
2026-04-27 12:46 43.87001 0.95448 38118 ft 437 kts 333°
2026-04-27 12:46 43.92577 0.92090 38121 ft 437 kts 333°
2026-04-27 12:47 43.98153 0.88724 38122 ft 437 kts 333°
2026-04-27 12:47 44.03724 0.85354 38136 ft 437 kts 333°
2026-04-27 12:48 44.09300 0.81975 38130 ft 437 kts 333°
2026-04-27 12:48 44.14874 0.78590 38128 ft 437 kts 333°
2026-04-27 12:49 44.20447 0.75197 38127 ft 437 kts 333°
2026-04-27 12:49 44.26035 0.71790 38128 ft 439 kts 333°
2026-04-27 12:50 44.31620 0.68377 38116 ft 438 kts 333°
2026-04-27 12:50 44.37211 0.64952 38115 ft 438 kts 333°
2026-04-27 12:51 44.42794 0.61526 38133 ft 438 kts 333°
2026-04-27 12:51 44.48336 0.58118 38107 ft 438 kts 332°
2026-04-27 12:52 44.53916 0.54680 38113 ft 438 kts 332°
2026-04-27 12:52 44.59489 0.51238 38107 ft 438 kts 332°
2026-04-27 12:53 44.67844 0.46064 38104 ft 437 kts 332°
2026-04-27 12:53 44.73411 0.42608 38102 ft 437 kts 332°
2026-04-27 12:54 44.78972 0.39149 38103 ft 437 kts 332°
2026-04-27 12:54 44.84539 0.35678 38102 ft 437 kts 332°
2026-04-27 12:55 44.90102 0.32202 38107 ft 437 kts 332°
2026-04-27 12:55 44.95664 0.28720 38108 ft 437 kts 332°
2026-04-27 12:56 45.01226 0.25229 38130 ft 437 kts 332°
2026-04-27 12:56 45.06780 0.21737 38120 ft 437 kts 332°
2026-04-27 12:57 45.12303 0.18257 38120 ft 437 kts 332°
2026-04-27 12:57 45.17855 0.14752 38125 ft 437 kts 331°
2026-04-27 12:58 45.23410 0.11236 38124 ft 437 kts 331°
2026-04-27 12:58 45.28957 0.07718 38124 ft 437 kts 331°
2026-04-27 12:59 45.34509 0.04190 38124 ft 437 kts 331°
2026-04-27 12:59 45.40060 0.00654 38141 ft 437 kts 331°
2026-04-27 13:00 45.45609 -0.02888 38134 ft 437 kts 331°
2026-04-27 13:00 45.51169 -0.06445 38131 ft 438 kts 331°
2026-04-27 13:01 45.55829 -0.09431 38132 ft 438 kts 331°
2026-04-27 13:01 45.61392 -0.13004 38139 ft 439 kts 331°
2026-04-27 13:02 45.66929 -0.16568 38131 ft 439 kts 331°
2026-04-27 13:02 45.72501 -0.20162 38140 ft 439 kts 331°
2026-04-27 13:03 45.78071 -0.23763 38148 ft 439 kts 330°
2026-04-27 13:03 45.83644 -0.27374 38144 ft 440 kts 330°
2026-04-27 13:04 45.89221 -0.30995 38135 ft 440 kts 330°
2026-04-27 13:04 45.94793 -0.34621 38136 ft 440 kts 330°
2026-04-27 13:05 46.00371 -0.38259 38147 ft 441 kts 330°
2026-04-27 13:05 46.05956 -0.41910 38146 ft 441 kts 330°
2026-04-27 13:06 46.11545 -0.45572 38145 ft 441 kts 330°
2026-04-27 13:06 46.17134 -0.49241 38161 ft 441 kts 330°
2026-04-27 13:07 46.22723 -0.52917 38145 ft 442 kts 330°
2026-04-27 13:07 46.28322 -0.56608 38149 ft 442 kts 330°
2026-04-27 13:08 46.33916 -0.60304 38152 ft 442 kts 330°
2026-04-27 13:08 46.39476 -0.63985 38157 ft 443 kts 330°
2026-04-27 13:09 46.45381 -0.66568 38173 ft 452 kts 349°
2026-04-27 13:09 46.51647 -0.67708 38143 ft 454 kts 348°
2026-04-27 13:10 46.57923 -0.68791 38183 ft 455 kts 349°
2026-04-27 13:10 46.64195 -0.69849 38163 ft 453 kts 349°
2026-04-27 13:11 46.70469 -0.70907 38164 ft 454 kts 349°
2026-04-27 13:11 46.76740 -0.71967 38164 ft 454 kts 349°
2026-04-27 13:12 46.83009 -0.73030 38166 ft 454 kts 349°
2026-04-27 13:12 46.89278 -0.74095 38166 ft 454 kts 349°
2026-04-27 13:13 46.95548 -0.75162 38170 ft 454 kts 349°
2026-04-27 13:13 47.01817 -0.76232 38170 ft 453 kts 349°
2026-04-27 13:14 47.08073 -0.77302 38176 ft 453 kts 349°
2026-04-27 13:14 47.14331 -0.78376 38173 ft 453 kts 349°
2026-04-27 13:15 47.20592 -0.79451 38178 ft 453 kts 349°
2026-04-27 13:15 47.26838 -0.80528 38177 ft 452 kts 349°
2026-04-27 13:16 47.33090 -0.81608 38175 ft 452 kts 349°
2026-04-27 13:16 47.39343 -0.82690 38186 ft 452 kts 349°
2026-04-27 13:17 47.45595 -0.83774 38176 ft 453 kts 349°
2026-04-27 13:17 47.51860 -0.84864 38180 ft 453 kts 349°
2026-04-27 13:18 47.58156 -0.85645 38184 ft 454 kts 352°
2026-04-27 13:18 47.64413 -0.86402 38186 ft 454 kts 352°
2026-04-27 13:19 47.70743 -0.87178 38184 ft 453 kts 352°
2026-04-27 13:19 47.76987 -0.87945 38190 ft 453 kts 352°
2026-04-27 13:20 47.83318 -0.88724 38203 ft 453 kts 352°
2026-04-27 13:20 47.89540 -0.89493 38205 ft 452 kts 352°
2026-04-27 13:21 47.95807 -0.90268 38210 ft 452 kts 352°
2026-04-27 13:21 48.02071 -0.91044 38219 ft 452 kts 352°
2026-04-27 13:22 48.08331 -0.91824 38207 ft 451 kts 352°
2026-04-27 13:22 48.14585 -0.92603 38207 ft 451 kts 352°
2026-04-27 13:23 48.20840 -0.93384 38206 ft 451 kts 352°
2026-04-27 13:23 48.27095 -0.94168 38199 ft 451 kts 353°
2026-04-27 13:24 48.33350 -0.94953 38199 ft 451 kts 353°
2026-04-27 13:24 48.39610 -0.95741 38207 ft 451 kts 353°
2026-04-27 13:25 48.45869 -0.96531 38212 ft 451 kts 353°
2026-04-27 13:25 48.52123 -0.97323 38204 ft 451 kts 353°
2026-04-27 13:26 48.58383 -0.98116 38208 ft 451 kts 353°
2026-04-27 13:26 48.64638 -0.98912 38210 ft 451 kts 353°
2026-04-27 13:27 48.70897 -0.99709 38206 ft 451 kts 353°
2026-04-27 13:27 48.77157 -1.00509 38212 ft 451 kts 353°
2026-04-27 13:28 48.83413 -1.01311 38217 ft 451 kts 353°
2026-04-27 13:28 48.89672 -1.02114 38216 ft 451 kts 353°
2026-04-27 13:29 48.95928 -1.02920 38222 ft 451 kts 353°
2026-04-27 13:29 49.02190 -1.03727 38223 ft 451 kts 353°
2026-04-27 13:30 49.08404 -1.04531 38243 ft 451 kts 353°
2026-04-27 13:30 49.14650 -1.05342 38230 ft 450 kts 353°
2026-04-27 13:31 49.20884 -1.06152 38241 ft 450 kts 353°
2026-04-27 13:31 49.27121 -1.06965 38244 ft 450 kts 353°
2026-04-27 13:32 49.33352 -1.07780 38248 ft 449 kts 353°
2026-04-27 13:32 49.39573 -1.08595 38244 ft 448 kts 353°
2026-04-27 13:33 49.45791 -1.09411 38252 ft 449 kts 353°
2026-04-27 13:33 49.52008 -1.10230 38277 ft 448 kts 353°
2026-04-27 13:34 49.58220 -1.11010 38251 ft 447 kts 356°
2026-04-27 13:34 49.64401 -1.10259 38240 ft 450 kts
2026-04-27 13:35 49.70633 -1.09420 38270 ft 450 kts
2026-04-27 13:35 49.76871 -1.08565 38275 ft 449 kts
2026-04-27 13:36 49.83083 -1.07712 38265 ft 448 kts
2026-04-27 13:36 49.89294 -1.06860 38273 ft 448 kts
2026-04-27 13:37 49.95501 -1.06005 38273 ft 448 kts
2026-04-27 13:37 50.01701 -1.05148 38280 ft 447 kts
2026-04-27 13:38 50.07894 -1.04288 38280 ft 447 kts
2026-04-27 13:38 50.14089 -1.03426 38279 ft 447 kts
2026-04-27 13:39 50.20286 -1.02562 38290 ft 447 kts
2026-04-27 13:39 50.26463 -1.01698 38278 ft 445 kts
2026-04-27 13:40 50.32626 -1.00834 38280 ft 445 kts
2026-04-27 13:40 50.38790 -0.99968 38279 ft 445 kts
2026-04-27 13:41 50.44953 -0.99100 38287 ft 444 kts
2026-04-27 13:41 50.51097 -0.98233 38278 ft 443 kts
2026-04-27 13:42 50.57242 -0.97363 38277 ft 443 kts
2026-04-27 13:42 50.63387 -0.96491 38276 ft 443 kts
2026-04-27 13:43 50.69522 -0.95618 38270 ft 441 kts
2026-04-27 13:43 50.75579 -0.94754 38270 ft 440 kts
2026-04-27 13:44 50.81675 -0.93803 38254 ft 441 kts
2026-04-27 13:44 50.84590 -0.92440 38066 ft 433 kts 16°
2026-04-27 13:44 50.87428 -0.90989 37636 ft 427 kts 14°
2026-04-27 13:45 50.90250 -0.89564 37090 ft 425 kts 15°
2026-04-27 13:45 50.93054 -0.88124 36542 ft 423 kts 15°
2026-04-27 13:45 50.95842 -0.86685 36044 ft 420 kts 15°
2026-04-27 13:45 50.98608 -0.85251 35566 ft 417 kts 15°
2026-04-27 13:46 51.01355 -0.83826 35079 ft 414 kts 15°
2026-04-27 13:46 51.04085 -0.82407 34601 ft 412 kts 15°
2026-04-27 13:46 51.06798 -0.80996 34099 ft 409 kts 15°
2026-04-27 13:46 51.09495 -0.79591 33554 ft 407 kts 15°
2026-04-27 13:47 51.12175 -0.78194 33065 ft 403 kts 15°
2026-04-27 13:47 51.14830 -0.76807 32626 ft 399 kts 15°
2026-04-27 13:47 51.17451 -0.75437 32178 ft 395 kts 15°
2026-04-27 13:47 51.20054 -0.74075 31739 ft 392 kts 15°
2026-04-27 13:48 51.22634 -0.72722 31298 ft 388 kts 15°
2026-04-27 13:48 51.25192 -0.71380 30870 ft 385 kts 15°
2026-04-27 13:48 51.27727 -0.70049 30446 ft 382 kts 15°
2026-04-27 13:48 51.30241 -0.68726 29969 ft 379 kts 15°
2026-04-27 13:49 51.32735 -0.67413 29524 ft 375 kts 15°
2026-04-27 13:49 51.35191 -0.66118 29146 ft 370 kts 15°
2026-04-27 13:49 51.37617 -0.64837 28734 ft 365 kts 15°
2026-04-27 13:49 51.40013 -0.63571 28356 ft 360 kts 15°
2026-04-27 13:50 51.42373 -0.62324 27967 ft 356 kts 15°
2026-04-27 13:50 51.43926 -0.61501 27716 ft 353 kts 15°
2026-04-27 13:50 51.46250 -0.60270 27347 ft 349 kts 15°
2026-04-27 13:50 51.48543 -0.59054 26980 ft 345 kts 15°
2026-04-27 13:51 51.51547 -0.57459 26501 ft 341 kts 15°
2026-04-27 13:51 51.53790 -0.56266 26147 ft 338 kts 15°
2026-04-27 13:51 51.55291 -0.55467 25911 ft 336 kts 15°
2026-04-27 13:51 51.57500 -0.54290 25578 ft 333 kts 15°
2026-04-27 13:52 51.59696 -0.53120 25231 ft 331 kts 15°
2026-04-27 13:52 51.61872 -0.51958 24882 ft 328 kts 15°
2026-04-27 13:52 51.64031 -0.50805 24533 ft 326 kts 15°
2026-04-27 13:52 51.66179 -0.49656 24201 ft 324 kts 15°
2026-04-27 13:53 51.70404 -0.47394 23498 ft 320 kts 15°
2026-04-27 13:53 51.72507 -0.46267 23140 ft 317 kts 15°
2026-04-27 13:53 51.74591 -0.45148 22803 ft 314 kts 15°
2026-04-27 13:54 51.76653 -0.44040 22445 ft 311 kts 15°
2026-04-27 13:54 51.78714 -0.43072 22113 ft 307 kts
2026-04-27 13:54 51.80823 -0.43217 21693 ft 304 kts 343°
2026-04-27 13:54 51.82768 -0.44522 21362 ft 303 kts 330°
2026-04-27 13:55 51.84628 -0.46139 20991 ft 304 kts 329°
2026-04-27 13:55 51.86472 -0.47818 20589 ft 304 kts 328°
2026-04-27 13:55 51.88305 -0.49537 20199 ft 304 kts 328°
2026-04-27 13:55 51.90126 -0.51272 19802 ft 304 kts 327°
2026-04-27 13:56 51.91944 -0.53022 19407 ft 304 kts 327°
2026-04-27 13:56 51.93763 -0.54787 19013 ft 305 kts 327°
2026-04-27 13:56 51.95590 -0.56565 18542 ft 308 kts 327°
2026-04-27 13:56 51.97427 -0.58357 18113 ft 308 kts 327°
2026-04-27 13:57 51.99256 -0.60145 17706 ft 307 kts 327°
2026-04-27 13:57 52.01083 -0.61932 17309 ft 306 kts 327°
2026-04-27 13:57 52.02902 -0.63715 16909 ft 305 kts 327°
2026-04-27 13:57 52.04718 -0.65495 16537 ft 304 kts 326°
2026-04-27 13:58 52.06528 -0.67272 16137 ft 304 kts 326°
2026-04-27 13:58 52.08336 -0.69049 15740 ft 304 kts 326°
2026-04-27 13:58 52.10143 -0.70825 15346 ft 303 kts 326°
2026-04-27 13:58 52.11946 -0.72600 14960 ft 303 kts 326°
2026-04-27 13:59 52.13749 -0.74377 14568 ft 303 kts 326°
2026-04-27 13:59 52.15526 -0.76130 14190 ft 303 kts 326°
2026-04-27 13:59 52.17329 -0.77909 13753 ft 303 kts 326°
2026-04-27 13:59 52.19131 -0.79690 13325 ft 303 kts 326°
2026-04-27 14:00 52.20929 -0.81467 12920 ft 301 kts 326°
2026-04-27 14:00 52.22695 -0.83282 12531 ft 299 kts 320°
2026-04-27 14:00 52.24025 -0.85866 12174 ft 293 kts 296°
2026-04-27 14:00 52.24547 -0.88999 11800 ft 292 kts 275°
2026-04-27 14:01 52.24569 -0.92316 11391 ft 293 kts 271°
2026-04-27 14:01 52.24534 -0.95633 11063 ft 290 kts 270°
2026-04-27 14:01 52.24496 -0.98903 10805 ft 286 kts 270°
2026-04-27 14:01 52.24461 -1.02115 10546 ft 281 kts 270°
2026-04-27 14:02 52.24425 -1.05285 10294 ft 277 kts 270°
2026-04-27 14:02 52.24524 -1.08393 10024 ft 272 kts 279°
2026-04-27 14:02 52.24816 -1.11426 9713 ft 270 kts 281°
2026-04-27 14:02 52.25118 -1.14443 9384 ft 268 kts 280°
2026-04-27 14:03 52.25419 -1.17438 9060 ft 267 kts 280°
2026-04-27 14:03 52.25722 -1.20424 8742 ft 266 kts 280°
2026-04-27 14:03 52.26017 -1.23399 8426 ft 265 kts 281°
2026-04-27 14:03 52.26306 -1.26366 8106 ft 264 kts 280°
2026-04-27 14:04 52.26597 -1.29333 7795 ft 264 kts 281°
2026-04-27 14:04 52.26878 -1.32266 7463 ft 259 kts 281°
2026-04-27 14:04 52.27140 -1.35140 7151 ft 253 kts 280°
2026-04-27 14:04 52.27389 -1.37954 6847 ft 248 kts 280°
2026-04-27 14:05 52.27631 -1.40720 6517 ft 243 kts 280°
2026-04-27 14:05 52.27876 -1.43417 6111 ft 239 kts 281°
2026-04-27 14:05 52.28119 -1.46085 5683 ft 236 kts 281°
2026-04-27 14:05 52.28356 -1.48712 5300 ft 231 kts 281°
2026-04-27 14:06 52.28574 -1.51290 4913 ft 228 kts 280°
2026-04-27 14:06 52.28784 -1.53819 4509 ft 220 kts 280°
2026-04-27 14:06 52.29242 -1.56110 4143 ft 207 kts 303°
2026-04-27 14:06 52.30139 -1.57810 3846 ft 196 kts 321°
2026-04-27 14:07 52.31205 -1.59108 3581 ft 187 kts 327°
2026-04-27 14:07 52.32257 -1.60264 3311 ft 178 kts 327°
2026-04-27 14:07 52.33275 -1.61384 3067 ft 175 kts 327°
2026-04-27 14:07 52.34282 -1.62496 2839 ft 175 kts 327°
2026-04-27 14:08 52.35292 -1.63613 2563 ft 175 kts 326°
2026-04-27 14:08 52.36297 -1.64725 2333 ft 174 kts 327°
2026-04-27 14:08 52.37293 -1.65826 2108 ft 173 kts 327°
2026-04-27 14:08 52.38289 -1.66929 1868 ft 173 kts 327°
2026-04-27 14:09 52.39258 -1.68002 1668 ft 157 kts 327°
2026-04-27 14:09 52.40135 -1.68976 1438 ft 150 kts 328°
2026-04-27 14:09 52.40960 -1.69894 1264 ft 137 kts 328°
2026-04-27 14:09 52.41731 -1.70749 1063 ft 132 kts 327°
2026-04-27 14:10 52.42485 -1.71585 863 ft 131 kts 326°
2026-04-27 14:10 52.43252 -1.72418 692 ft 132 kts 326°
2026-04-27 14:10 52.44013 -1.73272 520 ft 133 kts 324°
2026-04-27 14:10 52.44774 -1.74125 355 ft 132 kts 326°
2026-04-27 14:11 52.45462 -1.74887 326 ft 104 kts 326°
2026-04-27 14:11 52.45956 -1.75434 318 ft 65 kts 326°
2026-04-27 14:11 52.46133 -1.75614 312 ft 12 kts
2026-04-27 14:11 52.46198 -1.75510 309 ft 16 kts 56°
2026-04-27 14:12 52.46198 -1.75379 307 ft 12 kts 137°
2026-04-27 14:12 52.46122 -1.75292 306 ft 14 kts 146°
2026-04-27 14:12 52.46033 -1.75193 308 ft 17 kts 146°
2026-04-27 14:12 52.45932 -1.75081 308 ft 19 kts 146°
2026-04-27 14:13 52.45819 -1.74957 310 ft 20 kts 146°
2026-04-27 14:13 52.45702 -1.74826 315 ft 20 kts 145°
2026-04-27 14:13 52.45588 -1.74699 323 ft 19 kts 146°
2026-04-27 14:13 52.45496 -1.74565 326 ft 17 kts 101°
2026-04-27 14:14 52.45547 -1.74393 326 ft 18 kts 56°
2026-04-27 14:14 52.45622 -1.74202 325 ft 21 kts 57°
2026-04-27 14:14 52.45707 -1.73986 324 ft 24 kts 57°
2026-04-27 14:14 52.45747 -1.73788 326 ft 18 kts 111°
2026-04-27 14:15 52.45668 -1.73619 324 ft 20 kts 143°
2026-04-27 14:15 52.45559 -1.73496 326 ft 14 kts 144°
2026-04-27 14:15 52.45548 -1.73390 326 ft 9 kts 91°
2026-04-27 14:15 52.45520 -1.73320 324 ft 5 kts 131°
2026-04-27 14:16 52.45508 -1.73298 326 ft 1 kts 131°
2026-04-27 14:16 52.45505 -1.73293 326 ft 0 kts 131°